[[{"header":{"parameterUnit":"m.s-1","parameterCategory":1,"la1":30.2991,"la2":30.254,"lo1":-89.0895,"lo2":-89.0444,"dx":0.0017,"dy":0.0017,"nx":28,"ny":28,"refTime":"2022-12-12T03:00:00:Z","depth":0,"parameterNumber":2,"parameterNumberName":"U-component_of_WINDS"},"data":[0,0,0,0,0,0,0,0,0,0,0,0,0,0,0,0,0,0,0,0,0,0,0,0,0,0,0,0,0,0,0,0,0,0,0,0,0,0,0,0,0,0,0,0,0,0,0,0,0,0,0,0,0,0,0,0,0,0,-3.5199,-3.5202,0,-3.5451,-3.5454,-3.5457,-3.5573,-3.5573,-3.5573,-3.5573,-3.5839,-3.5846,-3.5854,0,0,0,0,0,0,0,0,0,0,0,0,0,-3.4829,-3.4835,-3.5199,-3.5202,-3.5205,-3.545,-3.5454,-3.5457,-3.5573,-3.5573,-3.5573,-3.5573,-3.5837,-3.5846,-3.5854,0,0,0,0,0,0,0,0,0,0,0,0,0,-3.5026,-3.4837,-3.5199,-3.5293,-3.5304,-3.545,-3.5454,-3.5458,-3.5573,-3.5573,-3.5573,-3.5572,-3.5834,-3.5845,-3.5855,-3.593,0,0,-3.5889,-3.5894,0,0,0,0,0,0,0,0,-3.5015,-3.504,-3.5276,-3.5286,-3.5299,-3.548,-3.5421,-3.5617,-3.5574,-3.5471,-3.5573,-3.5572,-3.5721,-3.5741,-3.5789,-3.5942,-3.5954,-3.589,-3.5897,-3.5901,-3.5904,0,0,0,0,0,0,0,-3.5001,-3.5029,-3.5299,-3.5279,-3.5293,-3.5325,-3.5353,-3.5459,-3.5595,-3.548,-3.5489,-3.5517,-3.5727,-3.5778,-3.5796,-3.5958,-3.589,-3.5899,-3.5906,-3.591,-3.6187,-3.6188,0,0,0,0,0,0,-3.4971,-3.5017,-3.5291,-3.5307,-3.5153,-3.5332,-3.5363,-3.5423,-3.5594,-3.562,-3.5517,-3.5521,-3.576,-3.5783,-3.5806,-3.5905,-3.5901,-3.5911,-3.5918,-3.6186,-3.6187,-3.6188,0,0,0,0,0,0,-3.4962,-3.4994,-3.5281,-3.5164,-3.5203,-3.5339,-3.5405,-3.5428,-3.5479,-3.5622,-3.5648,-3.5543,-3.576,-3.5791,-3.5898,-3.5916,-3.5916,-3.5926,-3.6185,-3.6186,-3.6187,-3.6103,0,0,0,0,0,0,-3.4951,-3.499,-3.5017,-3.5164,-3.5209,-3.5365,-3.5406,-3.5433,-3.5496,-3.5505,-3.5654,-3.5678,-3.5762,-3.5881,-3.5909,-3.5931,-3.5935,-3.6184,-3.6186,-3.6187,-3.6105,-3.6101,-3.6098,0,0,0,0,0,-3.4937,-3.4985,-3.5018,-3.505,-3.5245,-3.5366,-3.5392,-3.5486,-3.5497,-3.5527,-3.562,-3.5673,-3.5909,-3.5891,-3.5923,-3.5949,-3.6183,-3.6185,-3.6187,-3.6107,-3.6102,-3.6098,0,0,0,0,0,0,-3.484,-3.5006,-3.5044,-3.5141,-3.5238,-3.5385,-3.5426,-3.5478,-3.5576,-3.558,-3.5695,-3.5728,-3.5825,-3.5899,-3.5875,-3.6032,-3.6052,-3.606,-3.598,-3.5977,-3.5973,-3.5954,-3.5944,0,0,0,0,0,-3.4829,-3.491,-3.5052,-3.5124,-3.517,-3.5289,-3.5345,-3.5409,-3.5516,-3.5558,-3.5658,-3.5762,-3.5861,-3.5923,-3.6021,-3.6116,-3.6152,-3.6151,-3.6147,-3.6144,-3.615,-3.6208,-3.6209,-3.6193,-3.6193,-3.6193,0,0,-3.4809,-3.491,-3.4954,-3.5107,-3.519,-3.5274,-3.5323,-3.541,-3.5475,-3.5573,-3.5679,-3.5756,-3.5881,-3.5982,-3.6032,-3.6047,-3.6162,-3.6146,-3.6142,-3.615,-3.621,-3.6211,-3.6212,-3.6195,-3.6194,-3.6194,0,0,-3.4815,-3.4898,-3.4967,-3.5049,-3.5172,-3.5252,-3.5268,-3.5408,-3.5462,-3.557,-3.5645,-3.5726,-3.5892,-3.5977,-3.6042,-3.6081,-3.6135,-3.611,-3.6093,-3.6148,-3.6149,-3.6151,-3.6166,-3.617,-3.6116,-3.6116,-3.6116,0,-3.4774,-3.4901,-3.4997,-3.5079,-3.5145,-3.5235,-3.5307,-3.5383,-3.5533,-3.5578,-3.5591,-3.5802,-3.5892,-3.6015,-3.6025,-3.6074,-3.6099,-3.6094,-3.6141,-3.6144,-3.6147,-3.6163,-3.6168,-3.6112,-3.6112,-3.6113,-3.6113,0,-3.4846,-3.4933,-3.4975,-3.5114,-3.5186,-3.5262,-3.5373,-3.5433,-3.5491,-3.5569,-3.568,-3.5791,-3.5913,-3.5948,-3.6006,-3.6081,-3.6086,-3.6118,-3.6141,-3.6143,-3.616,-3.6166,-3.6106,-3.6108,-3.6109,-3.611,0,0,-3.4798,-3.4989,-3.5003,-3.5068,-3.5211,-3.5282,-3.5365,-3.5481,-3.5532,-3.5634,-3.5707,-3.5846,-3.5877,-3.5951,-3.602,-3.6068,-3.6093,-3.6096,-3.61,-3.6092,-3.6185,-3.6159,-3.6164,-3.613,-3.6131,-3.6133,-3.6175,0,-3.4824,-3.4972,-3.506,-3.5174,-3.5257,-3.5343,-3.5416,-3.5513,-3.5589,-3.5673,-3.5759,-3.5855,-3.5888,-3.5934,-3.5985,-3.6079,-3.6114,-3.6077,-3.6202,-3.6206,-3.6168,-3.6173,-3.6147,-3.6181,-3.6182,-3.6183,-3.6184,0,-3.4874,-3.497,-3.509,-3.5225,-3.5263,-3.5326,-3.5441,-3.5519,-3.5633,-3.5686,-3.5767,-3.5837,-3.5931,-3.5945,-3.6078,-3.6051,-3.6108,-3.6162,-3.6166,-3.6182,-3.6195,-3.619,-3.6194,-3.6199,-3.6195,-3.6194,-3.6193,0,-3.4827,-3.4987,-3.508,-3.5133,-3.5293,-3.5335,-3.5404,-3.5517,-3.5582,-3.5684,-3.5728,-3.584,-3.5902,-3.5989,-3.6088,-3.6089,-3.6211,-3.6234,-3.626,-3.6257,-3.6282,-3.6279,-3.6295,-3.6317,-3.6317,-3.6317,-3.6317,0,-3.4847,-3.4918,-3.5061,-3.5118,-3.5201,-3.5304,-3.5384,-3.5461,-3.5561,-3.5637,-3.572,-3.5791,-3.5917,-3.6004,-3.6082,-3.6181,-3.6208,-3.6255,-3.6276,-3.6248,-3.6242,-3.6287,-3.6288,-3.6318,-3.6318,-3.6318,-3.6317,0,-3.4809,-3.4907,-3.5015,-3.5156,-3.5194,-3.5248,-3.5372,-3.5432,-3.5512,-3.5608,-3.5636,-3.5764,-3.587,-3.5977,-3.6122,-3.6175,-3.6273,-3.63,-3.6233,-3.6244,-3.6264,-3.6261,-3.6311,-3.6323,-3.6335,-3.6334,-3.6334,0,-3.4815,-3.4871,-3.5018,-3.5073,-3.5139,-3.5228,-3.5294,-3.5399,-3.5465,-3.5599,-3.5644,-3.5756,-3.5851,-3.6019,-3.6126,-3.6238,-3.6269,-3.6279,-3.6287,-3.6258,-3.6271,-3.6266,-3.6273,-3.6275,-3.6275,-3.6274,-3.6274,0,-3.4817,-3.4863,-3.4953,-3.506,-3.5136,-3.5226,-3.532,-3.5362,-3.5486,-3.5556,-3.5664,-3.5738,-3.5885,-3.5996,-3.6121,-3.6196,-3.6257,-3.627,-3.6282,-3.6255,-3.6214,-3.6238,-3.6224,-3.6269,-3.6269,-3.627,-3.627,-3.627,-3.4802,-3.4856,-3.4967,-3.5066,-3.5147,-3.5233,-3.5296,-3.5384,-3.5475,-3.56,-3.5657,-3.5767,-3.5882,-3.6055,-3.6129,-3.6219,-3.6235,-3.6252,-3.6257,-3.6259,-3.6253,-3.6199,-3.6242,-3.6242,-3.6243,-3.6243,-3.6243,0,-3.4808,-3.4884,-3.4973,-3.51,-3.5178,-3.5225,-3.5332,-3.5395,-3.5489,-3.5589,-3.568,-3.5806,-3.5915,-3.6031,-3.6147,-3.6197,-3.6227,-3.6224,-3.6222,-3.6239,-3.6232,-3.621,-3.6197,-3.6197,-3.6197,-3.6197,-3.6197,-3.6197,-3.4821,-3.4914,-3.4974,-3.511,-3.5187,-3.5292,-3.5349,-3.543,-3.5511,-3.5646,-3.5735,-3.5809,-3.5917,-3.6041,-3.6144,-3.6176,-3.6216,-3.6204,-3.6244,-3.6236,-3.6239,-3.6242,-3.6222,-3.6212,-3.6212,-3.6244,-3.6244,-3.6244]},{"header":{"parameterUnit":"m.s-1","parameterCategory":1,"la1":30.2991,"la2":30.254,"lo1":-89.0895,"lo2":-89.0444,"dx":0.0017,"dy":0.0017,"nx":28,"ny":28,"refTime":"2022-12-12T03:00:00:Z","depth":0,"parameterNumber":3,"parameterNumberName":"V-component_of_WINDS"},"data":[0,0,0,0,0,0,0,0,0,0,0,0,0,0,0,0,0,0,0,0,0,0,0,0,0,0,0,0,0,0,0,0,0,0,0,0,0,0,0,0,0,0,0,0,0,0,0,0,0,0,0,0,0,0,0,0,0,0,1.4275,1.4275,0,1.4283,1.4283,1.4284,1.4329,1.433,1.4331,1.4332,1.4336,1.4336,1.4335,0,0,0,0,0,0,0,0,0,0,0,0,0,1.4296,1.4295,1.4275,1.4275,1.4275,1.4283,1.4283,1.4284,1.4329,1.433,1.4332,1.4333,1.4337,1.4336,1.4335,0,0,0,0,0,0,0,0,0,0,0,0,0,1.4293,1.4295,1.4275,1.4299,1.4301,1.4283,1.4283,1.4284,1.4329,1.433,1.4332,1.4334,1.4337,1.4336,1.4334,1.4292,0,0,1.433,1.433,0,0,0,0,0,0,0,0,1.4294,1.4293,1.4296,1.4298,1.43,1.4307,1.4292,1.4286,1.4328,1.4318,1.4333,1.4334,1.4325,1.4325,1.4322,1.4293,1.4293,1.433,1.4329,1.4329,1.4328,0,0,0,0,0,0,0,1.4294,1.4293,1.4278,1.4296,1.4298,1.4308,1.431,1.4291,1.4312,1.4319,1.4323,1.4323,1.4327,1.4324,1.4323,1.4293,1.433,1.4329,1.4328,1.4327,1.423,1.4229,0,0,0,0,0,0,1.4291,1.4292,1.4278,1.4279,1.4301,1.4307,1.4308,1.4303,1.4312,1.4316,1.4322,1.4325,1.4325,1.4324,1.4323,1.4276,1.4329,1.4327,1.4326,1.4232,1.423,1.4228,0,0,0,0,0,0,1.4291,1.4289,1.4278,1.4286,1.4286,1.4305,1.4298,1.4302,1.43,1.4314,1.4318,1.4315,1.4327,1.4325,1.43,1.4276,1.4327,1.4325,1.4234,1.4232,1.4229,1.418,0,0,0,0,0,0,1.4292,1.4289,1.4274,1.4286,1.4285,1.4255,1.4297,1.4301,1.4298,1.4302,1.4309,1.4312,1.4328,1.4302,1.4299,1.4275,1.4324,1.4236,1.4233,1.423,1.4183,1.4176,1.4169,0,0,0,0,0,1.4292,1.4258,1.4273,1.4271,1.4267,1.4254,1.4254,1.4274,1.4295,1.428,1.429,1.4312,1.428,1.4299,1.4296,1.4272,1.4238,1.4234,1.423,1.4187,1.4177,1.4169,0,0,0,0,0,0,1.4241,1.426,1.4277,1.4246,1.4248,1.4262,1.4243,1.4263,1.4258,1.4262,1.4286,1.4287,1.4259,1.4263,1.4284,1.4232,1.4263,1.4258,1.4231,1.4222,1.4215,1.4214,1.4323,0,0,0,0,0,1.4227,1.4216,1.4233,1.4204,1.4205,1.4224,1.4219,1.4234,1.4237,1.4238,1.4245,1.4246,1.4237,1.4229,1.4221,1.4184,1.4187,1.4166,1.4159,1.4153,1.4148,1.413,1.4121,1.4215,1.4215,1.4215,0,0,1.4196,1.4205,1.4197,1.4194,1.4198,1.4185,1.4224,1.4209,1.4199,1.4235,1.4213,1.4218,1.4221,1.419,1.4177,1.4193,1.4123,1.4148,1.4143,1.4142,1.4125,1.4116,1.4108,1.4213,1.4213,1.4214,0,0,1.4134,1.414,1.4117,1.4121,1.4127,1.414,1.4134,1.4145,1.4151,1.4129,1.4156,1.4145,1.4127,1.4128,1.4126,1.4067,1.4087,1.4063,1.4025,1.4007,1.3999,1.3993,1.3972,1.3964,1.4059,1.4058,1.4058,0,1.4095,1.4078,1.4103,1.4086,1.4085,1.4118,1.4095,1.4097,1.4098,1.4096,1.4114,1.4094,1.4098,1.4068,1.4054,1.4051,1.4045,1.4062,1.3999,1.3993,1.3987,1.3967,1.3959,1.4056,1.4056,1.4056,1.4056,0,1.403,1.4018,1.3999,1.4002,1.3998,1.3978,1.3999,1.3992,1.4008,1.4019,1.3997,1.4003,1.3997,1.3992,1.4006,1.3964,1.3974,1.3995,1.4026,1.3975,1.3956,1.3949,1.4051,1.4053,1.4053,1.4054,0,0,1.3935,1.3954,1.3946,1.3949,1.3958,1.3949,1.3931,1.3927,1.392,1.3921,1.3906,1.3891,1.3911,1.3909,1.3924,1.3909,1.3862,1.3932,1.3932,1.3919,1.3816,1.38,1.3791,1.3875,1.3874,1.3873,1.3816,0,1.3876,1.3848,1.387,1.3837,1.3826,1.3859,1.3843,1.3846,1.3856,1.3848,1.3859,1.3848,1.3875,1.3874,1.386,1.387,1.3841,1.3875,1.3861,1.386,1.3859,1.3782,1.3765,1.3711,1.3809,1.3808,1.3807,0,1.3803,1.3803,1.3769,1.3783,1.3779,1.3764,1.3763,1.3755,1.376,1.3768,1.3767,1.3787,1.3769,1.38,1.3776,1.3799,1.3794,1.3799,1.3797,1.3796,1.383,1.3779,1.3694,1.3686,1.3796,1.3797,1.3798,0,1.3738,1.3728,1.3708,1.3709,1.3723,1.3713,1.3718,1.3725,1.3721,1.372,1.3718,1.3714,1.3711,1.3707,1.3725,1.3746,1.3699,1.3731,1.3705,1.3704,1.3693,1.3694,1.3607,1.369,1.369,1.3691,1.3691,0,1.367,1.3648,1.3679,1.3666,1.3643,1.3668,1.3644,1.3653,1.3659,1.3647,1.3675,1.3663,1.3688,1.3679,1.3693,1.3671,1.3669,1.3675,1.3679,1.3673,1.3672,1.367,1.3674,1.3688,1.3689,1.3689,1.369,0,1.3592,1.3612,1.3592,1.3608,1.3612,1.3594,1.3608,1.3596,1.3609,1.3594,1.3592,1.3611,1.3602,1.362,1.3613,1.3622,1.3592,1.3602,1.3591,1.3594,1.3567,1.3569,1.3475,1.3464,1.3555,1.3554,1.3553,0,1.3548,1.3532,1.3548,1.3543,1.3548,1.3539,1.3537,1.3561,1.3557,1.3562,1.355,1.3544,1.354,1.3524,1.3536,1.3531,1.3541,1.3508,1.354,1.3535,1.3541,1.3541,1.354,1.3502,1.35,1.35,1.3499,0,1.3466,1.3477,1.3473,1.3473,1.347,1.347,1.3472,1.3467,1.3492,1.3486,1.3479,1.3476,1.347,1.3463,1.3461,1.3466,1.3486,1.3489,1.3483,1.3476,1.3471,1.3473,1.3573,1.3491,1.3492,1.3492,1.3493,1.3493,1.3404,1.3392,1.3402,1.3397,1.3402,1.3403,1.3394,1.3406,1.34,1.3398,1.3413,1.3402,1.3408,1.3408,1.341,1.3401,1.3416,1.3406,1.3404,1.3401,1.3397,1.3472,1.3401,1.3401,1.3401,1.3402,1.3402,0,1.3324,1.3333,1.3328,1.3331,1.3327,1.3349,1.3353,1.3348,1.3338,1.3343,1.3339,1.3331,1.3325,1.3337,1.3333,1.3324,1.3333,1.3322,1.3322,1.3323,1.3384,1.3391,1.3314,1.3314,1.3314,1.3314,1.3314,1.3314,1.3283,1.3264,1.3277,1.3261,1.3269,1.326,1.326,1.3262,1.3266,1.3255,1.3251,1.326,1.3268,1.3265,1.326,1.3264,1.3261,1.3246,1.3253,1.331,1.3319,1.3327,1.3333,1.3246,1.3246,1.3193,1.3193,1.3192]}]]